sat.trackr.live / text

‹ back to catalog

STARLINK-1366

NORAD 45569 · 2020-025AQ

PAYLOAD ACTIVE UNKNOWN

§ Identity

Operator
Country
US
Launch date
2020-04-22
Launch site
AFETR
Launch vehicle
Mass (kg)
RCS (m²)

Purposes: comms

External: N2YO · Heavens-Above · Gunter

§ Orbital elements

Epoch: 2026-05-25T01:12:35.144064Z

Period
89.87 min
Inclination
53.0326°
Eccentricity
0.0004280
Mean motion
16.02263127 rev/d
Perigee alt
265.3 km
Apogee alt
271.0 km
Semi-major
6,646.3 km
B*
6.3249e-4
RAAN
11.3848°
Arg perigee
256.5302°
Mean anomaly
103.5252°
Rev number
33,816

§ Raw data

STARLINK-13661 45569U 20025AQ  26145.05040676  .00376258  73264-4  63249-3 0  99982 45569  53.0326  11.3848 0004280 256.5302 103.5252 16.02263127338161

JSON: /api/v1/satellites/45569 · /tle

For live sub-satellite position, see the globe view (requires WebGL).

§ Visibility from observer

Set your observer location to see the next 7 days of passes ≥ 10°. The values pass through the URL so the page stays shareable.

No JS? Fill the form by hand. The geolocation button needs JavaScript.